Location: Ostrava
(49.8330°N, 18.2830°E)
Time: 11:12:12
(UTC+02:00)

ISS - Pass Details

Date: 27 May 2021
Orbit: 417 x 422 km, 51.6° (Epoch: 13 June)

Event Time Altitude Azimuth Distance (km) Brightness Sun altitude
Rises 22:14:48 0° 288° (WNW) 2,367 1.0 -11.4°
Reaches altitude 10° 22:16:57 10° 282° (WNW) 1,502 -0.2 -11.6°
Maximum altitude 22:20:11 45° 208° (SSW) 581 -3.3 -11.9°
Enters shadow 22:22:05 21° 145° (SE) 997 -2.5 -12.1°
